Location: ??
(35.1714°N, 128.2806°E)
Time: 15:41:11
(UTC+00:00)

Meteor 2-5 Rocket - Pass Details

Date: 29 October 2020
Orbit: 833 x 911 km, 81.2° (Epoch: 01 December)

Event Time Altitude Azimuth Distance (km) Brightness Sun altitude
Rises 19:32:30 0° 185° (S) 3,408 6.8 -27.8°
Reaches altitude 10° 19:34:53 10° 184° (S) 2,486 6.1 -27.3°
Maximum altitude 19:40:33 84° 96° (E) 882 3.7 -26.2°
Drops below altitude 10° 19:46:22 10° 10° (N) 2,555 6.3 -25.0°
Sets 19:48:51 0° 10° (N) 3,509 7.0 -24.5°
